| time (UTC) | temp F | wind direction | speed MPH | gust MPH | rain 1hr in | rain 24hr in | rain mn in | humidity % | barometer mb |
| 20260506190015 | 0 | 0.0 | 0.0 | 0.00 | 0.04 | 0.04 | 1009.4 | ||
| 20260506184515 | 0 | 0.0 | 0.0 | 0.00 | 0.04 | 0.04 | 1009.3 | ||
| 20260506183015 | 0 | 0.0 | 0.0 | 0.00 | 0.04 | 0.04 | 1009.3 | ||
| 20260506181517 | 0 | 0.0 | 0.0 | 0.00 | 0.04 | 0.04 | 1009.3 | ||
| 20260506180016 | 0 | 0.0 | 0.0 | 0.00 | 0.04 | 0.04 | 1009.3 | ||
| 20260506174503 | 0 | 0.0 | 0.0 | 0.00 | 0.04 | 0.04 | 1009.3 | ||
| 20260506173112 | 0 | 0.0 | 0.0 | 0.00 | 0.04 | 0.04 | 1009.3 | ||
| 20260506171600 | 0 | 0.0 | 0.0 | 0.00 | 0.04 | 0.04 | 1009.2 | ||
| 20260506170059 | 0 | 0.0 | 0.0 | 0.00 | 0.04 | 0.04 | 1009.1 | ||
| 20260506164605 | 0 | 0.0 | 0.0 | 0.00 | 0.09 | 0.04 | 1009.1 | ||
| 20260506163044 | 0 | 0.0 | 0.0 | 0.00 | 0.09 | 0.04 | 1009.0 | ||
| 20260506161538 | 0 | 0.0 | 0.0 | 0.00 | 0.09 | 0.04 | 1009.0 | ||
| 20260506160033 | 0 | 0.0 | 0.0 | 0.00 | 0.09 | 0.04 | 1008.9 | ||
| 20260506154529 | 0 | 0.0 | 0.0 | 0.00 | 0.09 | 0.04 | 1008.7 | ||
| 20260506153024 | 0 | 0.0 | 0.0 | 0.00 | 0.09 | 0.04 | 1008.7 | ||
| 20260506151520 | 0 | 0.0 | 0.0 | 0.00 | 0.09 | 0.04 | 1008.6 | ||
| 20260506150017 | 0 | 0.0 | 0.0 | 0.00 | 0.09 | 0.04 | 1008.6 | ||
| 20260506144511 | 0 | 0.0 | 0.0 | 0.00 | 0.11 | 0.04 | 1008.5 | ||
| 20260506143007 | 0 | 0.0 | 0.0 | 0.00 | 0.11 | 0.04 | 1008.4 | ||
| 20260506141503 | 0 | 0.0 | 0.0 | 0.00 | 0.11 | 0.04 | 1008.4 | ||
| 20260506140058 | 0 | 0.0 | 0.0 | 0.00 | 0.11 | 0.04 | 1008.4 | ||
| 20260506134554 | 0 | 0.0 | 0.0 | 0.00 | 0.11 | 0.04 | 1008.4 | ||
| 20260506133055 | 0 | 0.0 | 0.0 | 0.00 | 0.11 | 0.04 | 1008.2 | ||
| 20260506131545 | 0 | 0.0 | 0.0 | 0.00 | 0.11 | 0.04 | 1008.1 | ||
| 20260506130040 | 0 | 0.0 | 0.0 | 0.00 | 0.11 | 0.04 | 1008.2 | ||
| 20260506124539 | 0 | 0.0 | 0.0 | 0.01 | 0.13 | 0.04 | 1008.2 | ||
| 20260506123039 | 0 | 0.0 | 0.0 | 0.02 | 0.13 | 0.04 | 1008.1 | ||
| 20260506121527 | 0 | 0.0 | 0.0 | 0.04 | 0.13 | 0.04 | 1008.1 | ||
| 20260506120034 | 0 | 0.0 | 0.0 | 0.04 | 0.13 | 0.04 | 1008.0 | ||
| 20260506114525 | 36 | 134 | 2.0 | 0.0 | 0.03 | 0.13 | 0.03 | 87 | 1007.9 |
| 20260506113018 | 37 | 105 | 3.0 | 0.0 | 0.01 | 0.10 | 0.01 | 91 | 1007.6 |
| 20260506111515 | 36 | 105 | 1.0 | 0.0 | 0.00 | 0.09 | 0.00 | 93 | 1007.6 |
| 20260506110012 | 35 | 338 | 0.0 | 0.0 | 0.00 | 0.09 | 0.00 | 95 | 1007.5 |
| 20260506104508 | 34 | 326 | 0.0 | 0.0 | 0.00 | 0.09 | 0.00 | 96 | 1007.4 |
| 20260506103015 | 33 | 45 | 1.0 | 0.0 | 0.00 | 0.09 | 0.00 | 95 | 1007.3 |
| 20260506101505 | 32 | 13 | 2.0 | 0.0 | 0.00 | 0.09 | 0.00 | 95 | 1007.3 |
| 20260506100002 | 32 | 41 | 4.0 | 0.0 | 0.00 | 0.11 | 0.00 | 94 | 1007.2 |
| 20260506094558 | 0 | 0.0 | 0.0 | 0.00 | 0.11 | 0.00 | 1007.0 | ||
| 20260506093054 | 0 | 0.0 | 0.0 | 0.00 | 0.11 | 0.00 | 1006.9 | ||
| 20260506091549 | 0 | 0.0 | 0.0 | 0.00 | 0.11 | 0.00 | 1006.6 | ||
| 20260506090045 | 0 | 0.0 | 0.0 | 0.00 | 0.11 | 0.00 | 1006.5 | ||
| 20260506084540 | 0 | 0.0 | 0.0 | 0.00 | 0.15 | 0.00 | 1006.4 | ||
| 20260506083042 | 0 | 0.0 | 0.0 | 0.00 | 0.15 | 0.00 | 1006.3 | ||
| 20260506081531 | 0 | 0.0 | 0.0 | 0.00 | 0.15 | 0.00 | 1006.2 | ||
| 20260506073018 | 0 | 0.0 | 0.0 | 0.00 | 0.18 | 0.00 | 1005.9 | ||
| 20260506071514 | 0 | 0.0 | 0.0 | 0.00 | 0.18 | 0.00 | 1005.8 | ||
| 20260506061602 | 0 | 0.0 | 0.0 | 0.00 | 0.19 | 0.00 | 1005.4 | ||
| 20260506044537 | 0 | 0.0 | 0.0 | 0.00 | 0.19 | 0.00 | 1004.8 | ||
| 20260506043026 | 0 | 0.0 | 0.0 | 0.00 | 0.19 | 0.00 | 1004.7 | ||
| 20260506041521 | 0 | 0.0 | 0.0 | 0.00 | 0.19 | 0.00 | 1004.6 | ||
| 20260506040017 | 0 | 0.0 | 0.0 | 0.00 | 0.19 | 0.00 | 1004.5 | ||
| 20260506034513 | 0 | 0.0 | 0.0 | 0.00 | 0.19 | 0.00 | 1004.3 | ||
| 20260506033008 | 0 | 0.0 | 0.0 | 0.00 | 0.19 | 0.00 | 1004.3 | ||
| 20260506031505 | 0 | 0.0 | 0.0 | 0.00 | 0.19 | 0.00 | 1004.1 | ||
| 20260506030114 | 0 | 0.0 | 0.0 | 0.00 | 0.19 | 0.00 | 1004.0 | ||
| 20260506024555 | 0 | 0.0 | 0.0 | 0.00 | 0.19 | 0.00 | 1003.9 | ||
| 20260506023051 | 0 | 0.0 | 0.0 | 0.00 | 0.19 | 0.00 | 1003.8 | ||
| 20260506021546 | 0 | 0.0 | 0.0 | 0.00 | 0.19 | 0.00 | 1003.8 | ||
| 20260506020041 | 0 | 0.0 | 0.0 | 0.00 | 0.19 | 0.00 | 1003.7 | ||
| 20260506014538 | 0 | 0.0 | 0.0 | 0.00 | 0.19 | 0.00 | 1003.6 | ||
| 20260506013040 | 0 | 0.0 | 0.0 | 0.00 | 0.19 | 0.00 | 1003.5 | ||
| 20260506011529 | 0 | 0.0 | 0.0 | 0.00 | 0.19 | 0.00 | 1003.3 | ||
| 20260506010024 | 0 | 0.0 | 0.0 | 0.00 | 0.19 | 0.00 | 1003.3 | ||
| 20260506004520 | 0 | 0.0 | 0.0 | 0.00 | 0.19 | 0.00 | 1003.2 | ||
| 20260506003016 | 0 | 0.0 | 0.0 | 0.00 | 0.19 | 0.00 | 1003.1 | ||
| 20260506001512 | 0 | 0.0 | 0.0 | 0.00 | 0.19 | 0.00 | 1003.2 | ||
| 20260506000006 | 0 | 0.0 | 0.0 | 0.00 | 0.19 | 0.00 | 1002.9 | ||
| 20260505234502 | 0 | 0.0 | 0.0 | 0.00 | 0.19 | 0.00 | 1002.9 | ||
| 20260505233058 | 0 | 0.0 | 0.0 | 0.00 | 0.19 | 0.00 | 1002.9 | ||
| 20260505231554 | 0 | 0.0 | 0.0 | 0.00 | 0.19 | 0.00 | 1002.8 | ||
| 20260505230051 | 0 | 0.0 | 0.0 | 0.00 | 0.19 | 0.00 | 1002.8 | ||
| 20260505224545 | 0 | 0.0 | 0.0 | 0.00 | 0.19 | 0.00 | 1002.8 | ||
| 20260505223057 | 0 | 0.0 | 0.0 | 0.00 | 0.19 | 0.00 | 1002.7 | ||
| 20260505221544 | 0 | 0.0 | 0.0 | 0.00 | 0.19 | 0.00 | 1002.6 | ||
| 20260505220032 | 0 | 0.0 | 0.0 | 0.00 | 0.19 | 0.00 | 1002.7 | ||
| 20260505214530 | 0 | 0.0 | 0.0 | 0.00 | 0.19 | 0.19 | 1002.6 | ||
| 20260505213023 | 0 | 0.0 | 0.0 | 0.00 | 0.19 | 0.19 | 1002.4 | ||
| 20260505211519 | 0 | 0.0 | 0.0 | 0.00 | 0.19 | 0.19 | 1002.5 | ||
| 20260505210017 | 0 | 0.0 | 0.0 | 0.00 | 0.19 | 0.19 | 1002.4 | ||
| 20260505204517 | 0 | 0.0 | 0.0 | 0.00 | 0.19 | 0.19 | 1002.3 | ||
| 20260505203005 | 0 | 0.0 | 0.0 | 0.00 | 0.19 | 0.19 | 1002.3 | ||
| 20260505201501 | 0 | 0.0 | 0.0 | 0.00 | 0.19 | 0.19 | 1002.2 | ||
| 20260505200105 | 0 | 0.0 | 0.0 | 0.00 | 0.19 | 0.19 | 1002.1 | ||
| 20260505194602 | 0 | 0.0 | 0.0 | 0.00 | 0.19 | 0.19 | 1002.1 | ||
| 20260505193048 | 0 | 0.0 | 0.0 | 0.00 | 0.19 | 0.19 | 1002.1 | ||
| 20260505191544 | 0 | 0.0 | 0.0 | 0.00 | 0.19 | 0.19 | 1002.0 |